Location: Stilling
(56.0622°N, 9.9882°E)
Time: 23:39:44
(UTC+00:00)

Cosmos 1328 Rocket - Pass Details

Date: 13 July 2020
Orbit: 602 x 627 km, 82.5° (Epoch: 14 August)

Event Time Altitude Azimuth Distance (km) Brightness Sun altitude
Rises 21:31:35 0° 348° (NNW) 2,870 8.8 -8.6°
Reaches altitude 10° 21:33:49 10° 350° (N) 1,962 7.6 -8.7°
Maximum altitude 21:38:09 76° 77° (ENE) 628 3.6 -9.0°
Enters shadow 21:42:07 12° 163° (SSE) 1,810 5.3 -9.2°
